(189) Phthia
ephemeris date magn radius delta ra dec elong phase
Today1 Jul 202514.42.458 AU3.460 AU07h08m+18°48'8.1°3.3°
Opposition12 Mar 202612.62.535 AU1.544 AU11h25m-01°05'175.5°1.8°
(189) Phthia - 2025-07-01
astro.vanbuitenen.nl


 
-1 year
-1 month
-1 day
Now
+1 day
+1 month
+1 year

The interactive orbit chart above shows the body's path through the solar system and its position at the given date. Green and blue lines are shown perpendicular to the ecliptic plane: Green if the path is above the ecliptic plane, blue if it is below. (Left-click and drag to rotate the view; Right-click and drag to move the view; Use scroll wheel to zoom in our out.)

The orbital elements of Phthia are:

            e (Eccentricity)                : 0.0368750
            a (Semimajor axis)              : 2.4515570
            i (Inclination)                 : 5.17290
            Ω (Longitude of ascending node) : 203.31200
            ω (Argument of perihelion)      : 169.87247
            M (Mean anomaly)                : 77.31625
            Epoch                           : 2025 May 05

            L (Longitude of perihelion)     : 193.22487
            B (Latitude of perihelion)      : 0.90840
            P (Orbital period in years)     : 3.84            
        

The light curve chart below shows the estimated development of the minor planet's magnitude.


The all-sky chart below shows the path of the minor planet over the same period as the light curve. The current position is marked yellow.





The following chart shows the path of the minor planet in the next few days. The field of view is optimized for (~10x50) binoculars and finderscopes. A more printer-friendly version of the same chart can be found below.




Ephemerides:
Date       Time       RA (2000)    DEC (2000)    delta   radius  elong  phase   PA    magn
2025-07-01 00:00 UT   07 08 57.2   +18 48 12     3.460    2.458    8.1    3.3   123   14.4 
2025-07-01 01:20 UT   07 09 03.7   +18 48 01     3.460    2.458    8.1    3.3   124   14.4 
2025-07-02 00:00 UT   07 10 52.8   +18 44 55     3.462    2.458    7.7    3.2   125   14.3 
2025-07-03 00:00 UT   07 12 48.4   +18 41 33     3.464    2.459    7.2    3.0   127   14.3 
2025-07-04 00:00 UT   07 14 43.8   +18 38 05     3.466    2.459    6.8    2.8   130   14.3 
2025-07-05 00:00 UT   07 16 39.2   +18 34 32     3.467    2.460    6.4    2.6   132   14.3 
2025-07-06 00:00 UT   07 18 34.4   +18 30 54     3.469    2.460    6.0    2.5   135   14.3 
2025-07-07 00:00 UT   07 20 29.6   +18 27 10     3.470    2.460    5.6    2.3   138   14.3 
2025-07-08 00:00 UT   07 22 24.6   +18 23 21     3.471    2.461    5.3    2.2   142   14.3 
2025-07-09 00:00 UT   07 24 19.5   +18 19 27     3.472    2.461    4.9    2.0   146   14.3 
2025-07-10 00:00 UT   07 26 14.4   +18 15 27     3.473    2.462    4.6    1.9   151   14.3 
2025-07-11 00:00 UT   07 28 09.1   +18 11 23     3.474    2.462    4.3    1.8   156   14.3 
2025-07-12 00:00 UT   07 30 03.7   +18 07 13     3.475    2.462    4.1    1.7   162   14.3 
2025-07-13 00:00 UT   07 31 58.2   +18 02 57     3.476    2.463    3.9    1.6   169   14.2 
2025-07-14 00:00 UT   07 33 52.6   +17 58 37     3.477    2.463    3.8    1.5   176   14.2 
2025-07-15 00:00 UT   07 35 46.8   +17 54 12     3.477    2.464    3.7    1.5   184   14.2 
2025-07-16 00:00 UT   07 37 40.9   +17 49 41     3.477    2.464    3.7    1.5   192   14.2 
2025-07-17 00:00 UT   07 39 34.9   +17 45 05     3.478    2.464    3.7    1.5   200   14.2 
2025-07-18 00:00 UT   07 41 28.8   +17 40 24     3.478    2.465    3.8    1.6   207   14.3 
2025-07-19 00:00 UT   07 43 22.5   +17 35 39     3.478    2.465    4.0    1.7   214   14.3 


    Terminology:
            
    delta:  distance between minor planet and earth in AU
    radius: distance between minor planet and sun in AU
    magn:   magnitude (brightness) estimate    
    ra:     right ascension in hours (24h = 360deg)
    dec:    declination in degrees
    elong:  elongation in degrees (angle sun-earth-minor planet)    
    phase:  phase angle in degrees (angle sun-minor planet-earth)        
    AU:     Astronomical Unit (mean distance between earth and sun: 149597870.7 km
    

Orbital elements provided by the MPC (Minor Planet Center).
Calculations by a modified version of AAPlus, a C# implementation of the AA+ project by PJ Naughter from the algorithms presented in the book "Astronomical Algorithms" by Jean Meeus.
NGC2000 dso catalog and star labels from VizieR as provided by the Strasbourg astronomical Data Center.
Tycho2 catalog from the ESO archive.